Temperature
18 15 14 14 13 15 16 16 15 15 13 10 10 11 11 10 9 8 9 9 10 11 11 9 8 7 7 6 6 5 5 5 4 3 3 2 2 1 1 0 -1 -1 -2 -2
15 15 16 16 16 16 16 16 15 14 13 12 10 11 11 10 9 9 9 10 11 11 10 9 8 8 7 7 6 6 5 5 4 3 3 2 2 1 1 -0 -1 -1 -2 -3
17 16 17 17 16 16 16 15 15 15 14 13 11 11 12 11 10 10 10 11 12 12 12 11 9 8 8 7 7 6 6 5 4 3 3 2 2 1 0 -0 -1 -2 -2 -3
16 16 16 16 16 16 15 15 15 15 13 11 12 11 12 12 10 8 10 10 12 13 12 12 11 10 9 9 8 7 6 5 4 3 3 2 2 1 0 -0 -1 -2 -3 -3
16 16 16 16 16 16 15 15 14 14 13 11 11 11 12 12 11 10 10 12 14 14 14 13 12 12 11 9 8 7 6 5 4 3 3 2 1 1 0 -0 -1 -2 -3 -3
15 16 16 15 15 15 14 13 12 10 10 11 11 10 11 10 11 12 12 15 16 16 15 14 13 12 11 10 8 7 6 5 4 3 3 2 1 1 0 -1 -1 -2 -3 -3
15 15 15 15 15 14 13 12 12 13 11 11 12 11 12 13 11 12 14 17 18 17 16 14 13 12 11 10 9 8 6 5 4 3 3 2 1 1 -0 -1 -1 -2 -3 -3
14 14 14 14 14 14 13 12 12 13 12 11 12 12 13 13 13 14 15 17 18 17 16 15 14 13 12 11 10 8 7 6 4 3 3 2 1 0 -0 -1 -1 -2 -3 -4
14 14 14 14 14 14 14 12 12 11 11 11 11 11 12 12 12 12 14 15 17 17 16 16 15 14 12 11 10 9 7 6 5 4 3 2 1 0 -0 -1 -2 -2 -3 -4
14 13 13 13 13 13 13 12 10 11 11 11 11 11 12 14 12 11 11 13 16 17 16 15 15 14 13 11 10 8 7 6 5 3 3 2 1 0 -0 -1 -2 -2 -3 -4
13 13 13 12 12 12 12 12 11 10 9 10 10 13 12 13 13 12 13 16 17 17 17 16 15 14 13 11 10 8 7 5 4 3 2 2 1 0 -1 -1 -2 -2 -3 -4
12 10 11 11 12 12 11 11 10 11 11 9 8 13 13 12 12 13 15 17 18 18 17 16 15 14 12 11 10 8 7 5 4 3 2 2 1 -0 -1 -1 -2 -3 -3 -4
12 11 12 13 13 12 12 11 10 10 10 8 9 13 13 12 12 14 15 17 17 17 16 16 15 14 13 11 10 8 7 6 4 3 2 1 1 -0 -1 -1 -2 -3 -3 -4
11 10 11 13 13 13 12 12 11 10 10 9 10 13 15 14 12 13 15 16 16 16 16 15 15 14 13 12 10 9 7 6 4 3 2 1 1 -0 -1 -1 -2 -3 -3 -4
9 9 9 9 10 10 11 12 11 11 11 11 13 12 15 15 13 14 16 16 16 16 16 16 15 14 13 12 10 9 7 5 4 3 2 2 1 -0 -1 -2 -2 -3 -3 -4
7 8 9 9 10 9 9 11 11 11 11 12 12 13 15 15 14 14 15 15 15 16 16 16 15 14 13 12 11 9 8 6 4 3 2 2 0 -0 -1 -2 -2 -3 -3 -4
6 7 8 8 9 10 10 12 11 10 9 10 11 13 13 12 11 13 15 15 15 16 16 16 15 15 14 13 11 10 9 6 4 3 2 1 0 -0 -1 -2 -2 -3 -3 -4
6 7 7 6 9 10 12 12 12 10 10 10 11 11 11 11 14 15 15 16 16 17 17 16 15 15 14 13 11 10 8 6 5 3 2 1 0 -0 -1 -2 -2 -3 -3 -4
7 8 7 6 7 8 11 11 11 10 10 11 11 11 12 13 12 14 18 18 17 17 16 15 15 14 13 12 11 10 8 6 4 3 2 1 0 -0 -1 -1 -2 -3 -3 -4
6 6 6 5 6 8 12 13 12 12 11 13 11 11 12 11 10 13 18 17 17 16 16 15 14 13 13 12 11 9 8 6 5 4 3 2 1 -0 -1 -1 -2 -3 -3 -4
5 5 5 6 5 8 10 11 12 12 13 16 15 15 14 11 13 16 17 16 16 16 15 15 14 13 12 11 10 9 8 7 6 5 3 1 0 -0 -1 -2 -2 -3 -3 -4
6 5 4 5 5 8 10 9 10 13 16 16 16 16 15 15 15 15 16 16 15 15 14 14 13 13 12 11 10 9 8 8 6 4 2 1 0 -0 -1 -2 -2 -3 -3 -4
7 8 8 7 10 12 12 13 15 15 14 16 15 15 15 14 14 15 15 15 14 14 14 13 13 12 11 10 9 9 8 7 5 3 2 1 0 -1 -1 -2 -2 -3 -3 -4
7 7 7 6 8 10 12 13 14 15 15 15 15 14 14 13 13 13 13 13 13 13 13 12 12 11 11 10 9 8 7 6 4 3 2 1 0 -1 -1 -2 -2 -3 -3 -4
8 8 6 8 9 10 12 14 14 14 14 14 13 13 13 12 12 12 12 12 12 12 12 11 11 11 11 10 9 8 6 5 4 3 2 1 0 -1 -1 -2 -2 -2 -3 -4
8 9 9 11 12 11 12 13 13 12 12 12 12 12 11 11 11 11 11 11 11 11 11 11 11 10 10 9 8 7 6 5 3 2 1 1 -0 -1 -1 -2 -2 -3 -3 -4
Wind_Speed
2 3 4 8 9 6 4 5 7 7 5 9 13 18 17 10 12 13 13 15 18 21 15 12 14 14 14 14 13 13 11 9 7 4 3 2 2 3 4 5 5 5 5 6
4 4 6 5 5 5 4 5 6 5 3 7 9 16 15 11 13 14 17 19 20 17 13 13 14 15 17 17 16 14 13 12 9 6 4 3 3 3 5 5 5 5 6 7
6 6 3 3 4 4 4 5 5 4 3 4 6 11 8 5 7 10 11 13 14 19 19 17 18 18 18 18 18 16 15 13 10 9 5 2 1 1 2 3 3 6 7 7
4 3 3 3 4 4 5 3 1 2 3 6 2 6 9 6 6 10 14 14 16 18 18 17 18 19 20 20 16 15 14 13 11 10 7 7 5 5 5 4 3 6 7 8
5 4 5 6 5 4 5 1 1 1 1 5 3 4 10 3 8 12 14 18 19 18 18 18 20 21 19 17 16 14 14 13 11 10 10 8 7 6 4 4 5 5 7 9
6 3 4 5 1 1 1 4 4 5 4 4 6 7 8 6 9 9 10 14 18 16 16 16 15 14 14 14 14 14 15 13 12 12 11 10 9 8 6 6 5 5 4 6
5 4 2 2 1 1 4 4 4 4 2 7 4 5 11 10 10 10 11 12 14 13 13 13 14 15 16 17 17 16 16 14 13 12 12 11 11 9 9 8 7 6 5 4
4 7 4 4 5 5 4 6 5 4 5 6 5 8 10 7 7 8 8 8 8 10 11 13 16 17 18 19 19 18 18 15 14 13 12 10 10 8 7 8 7 7 6 6
4 6 2 2 2 4 3 5 6 4 4 6 8 9 11 6 6 6 6 7 10 11 11 13 13 15 17 19 20 20 19 15 15 14 12 11 10 9 9 8 7 6 6 7
5 6 5 1 1 2 3 4 5 3 3 6 8 7 6 8 10 11 10 12 14 11 11 11 12 15 16 17 16 16 17 17 14 13 12 11 10 10 9 8 8 8 7 9
3 4 5 2 6 8 6 5 5 4 4 5 6 9 8 9 10 12 15 15 14 13 14 14 13 13 13 12 14 16 16 14 13 14 12 11 10 9 9 8 9 8 7 8
4 4 6 9 5 5 8 8 8 5 6 6 4 11 9 10 10 10 12 12 11 12 12 12 12 11 13 15 15 17 16 15 15 13 12 11 10 9 9 9 9 7 8 8
5 3 4 7 2 2 5 6 7 5 3 5 6 11 6 6 8 9 10 11 11 11 10 9 10 13 15 16 17 17 16 16 14 13 12 11 10 10 10 9 8 8 8 8
4 5 8 9 7 5 6 6 8 8 6 8 14 20 20 14 11 11 11 12 11 11 10 11 12 14 15 16 17 17 17 15 14 13 13 13 12 11 10 9 8 8 8 8
5 6 8 10 11 8 11 16 12 16 15 15 17 19 29 20 10 11 11 11 11 11 11 13 15 15 15 15 16 16 16 15 15 14 14 14 12 10 9 9 8 8 8 9
5 5 4 7 8 9 11 19 19 20 17 22 23 26 28 15 8 10 12 12 12 13 14 14 15 15 16 18 18 17 17 16 15 16 15 13 11 10 10 9 8 8 8 8
7 6 3 6 6 7 10 15 14 9 10 11 19 21 18 12 13 12 11 11 13 15 15 14 15 17 18 18 18 19 18 15 16 16 14 13 12 12 11 10 8 9 8 8
9 7 4 4 5 9 11 5 7 10 12 14 15 16 13 13 10 10 12 13 16 15 15 14 13 14 15 15 15 15 13 15 16 16 15 14 13 12 10 9 9 9 7 7
6 8 5 3 5 10 12 10 6 8 10 12 16 19 18 10 7 11 13 12 15 15 14 13 12 12 11 13 14 14 15 15 16 17 17 15 14 13 11 11 11 8 7 8
3 3 5 5 6 10 11 4 3 3 9 10 9 13 11 0 4 9 10 8 11 12 11 11 9 8 10 12 13 16 17 17 20 19 17 15 14 13 13 12 10 7 7 8
4 4 7 9 10 12 11 2 5 4 9 5 5 9 8 7 10 10 11 11 12 13 12 10 8 10 12 11 14 17 18 21 20 15 13 13 14 13 12 10 8 7 7 7
11 9 9 7 8 12 8 8 10 11 6 6 7 8 10 11 14 15 15 15 15 14 13 10 9 12 9 11 16 18 21 18 13 13 14 14 13 12 10 9 9 7 7 7
10 11 9 14 14 7 7 12 10 5 8 11 11 14 13 14 16 17 16 16 15 14 13 10 11 11 9 13 17 20 18 13 14 15 15 13 13 12 10 10 9 7 7 6
8 7 7 10 13 13 13 12 13 15 17 18 17 16 15 17 20 20 18 16 14 14 12 10 9 11 13 14 18 18 12 14 16 16 15 13 13 12 11 9 8 8 7 7
9 7 8 15 13 11 13 12 14 14 14 16 18 17 15 16 18 18 17 15 14 12 11 9 10 14 15 13 16 15 13 16 17 16 15 14 13 12 11 10 9 9 8 8
10 13 17 26 19 15 16 12 14 16 17 18 18 17 15 13 15 15 14 13 12 12 11 10 11 14 14 12 14 14 15 17 17 16 15 13 11 11 10 9 8 13 12 13
Wind_Direction
73 85 220 223 207 217 220 236 262 264 198 187 233 256 264 211 215 225 220 217 219 224 220 202 195 186 180 179 178 177 174 173 161 157 167 189 231 251 266 264 251 258 282 296
26 257 231 197 201 229 242 269 274 283 202 207 262 270 267 219 211 218 219 220 222 226 219 206 196 190 188 187 185 182 181 178 175 171 169 178 195 229 243 249 254 265 281 292
230 243 205 200 230 249 267 246 257 283 337 272 304 299 280 247 224 230 225 223 225 223 221 211 202 198 195 194 190 188 185 181 178 172 160 160 166 267 261 249 252 264 279 287
256 239 207 220 242 209 261 233 252 303 341 294 264 295 288 264 258 241 234 228 229 228 223 215 207 203 202 200 191 187 183 180 178 172 172 176 193 213 224 225 237 266 275 282
267 214 213 231 236 199 230 211 259 281 235 300 254 224 283 286 266 254 236 230 232 229 222 218 211 208 204 195 189 186 181 182 180 179 180 184 203 214 226 235 250 259 269 275
245 232 211 218 209 184 96 47 45 50 70 288 227 191 276 237 223 244 238 227 230 227 222 221 212 201 196 187 186 183 183 187 184 184 185 190 202 212 224 238 247 253 255 266
300 276 240 162 181 100 86 71 356 329 329 257 239 214 250 246 225 222 229 229 227 221 215 212 203 197 193 188 189 187 187 191 189 189 193 197 202 207 217 228 235 243 250 255
294 289 237 205 197 193 189 150 176 249 262 289 291 240 254 260 254 241 242 244 235 223 214 212 207 200 195 192 190 190 192 194 191 194 198 200 201 205 216 222 224 232 239 247
230 270 264 181 173 182 208 197 178 167 277 275 272 278 296 250 262 249 247 250 243 233 221 216 207 200 195 193 194 193 193 195 195 197 196 200 203 207 216 223 225 233 239 253
189 267 280 260 45 251 198 150 108 156 257 278 287 273 255 268 248 243 244 244 246 241 232 222 211 204 200 198 195 192 194 197 195 194 197 204 205 209 215 220 229 235 242 251
184 226 292 288 214 204 173 190 182 182 191 207 280 275 230 243 241 229 233 237 240 237 231 224 216 207 199 191 191 194 196 196 195 197 199 202 203 207 212 220 230 236 241 246
169 153 264 255 241 200 192 198 165 184 236 209 231 272 257 248 258 239 241 245 244 239 234 223 211 198 195 196 196 198 198 199 200 197 196 202 204 205 214 225 233 234 241 246
153 145 310 325 315 220 229 220 194 176 179 203 216 263 281 279 276 259 254 259 259 252 241 223 207 204 204 203 201 201 201 202 198 193 196 201 205 208 218 226 231 234 241 248
129 183 203 233 239 201 234 234 201 182 211 233 232 254 273 271 271 274 266 261 262 255 240 224 217 215 212 207 204 202 203 200 195 194 197 204 209 211 216 222 228 234 240 248
147 224 239 255 262 254 250 252 228 217 221 231 250 251 265 272 265 262 264 266 267 259 244 230 226 222 215 210 207 205 203 199 195 195 202 209 208 207 212 220 228 235 241 251
173 220 259 275 268 259 264 260 248 238 236 240 255 267 267 279 278 270 269 267 264 260 252 242 233 225 218 213 209 205 204 199 193 198 205 205 201 205 212 219 226 234 243 252
186 188 218 272 304 327 274 251 233 218 219 215 241 253 273 284 272 269 270 266 260 264 261 250 237 228 222 215 207 205 203 193 192 200 203 200 201 207 213 219 224 233 242 249
166 165 194 275 340 249 248 246 213 223 245 227 241 259 269 257 270 271 262 260 267 266 264 257 243 232 225 213 206 201 190 188 194 200 202 201 201 209 210 214 226 234 237 244
165 161 186 217 259 274 286 275 210 212 273 237 236 255 264 278 313 289 265 243 247 257 259 256 244 232 219 208 197 187 189 191 196 202 204 202 201 205 207 216 225 229 233 244
99 135 176 192 223 249 253 240 147 139 284 260 218 244 263 302 303 281 276 268 260 262 262 261 252 227 216 207 185 187 194 196 204 206 204 199 198 202 208 215 221 222 228 243
155 183 203 218 233 259 260 209 136 204 253 278 217 238 246 217 236 260 283 284 277 274 271 264 244 229 222 196 182 195 199 207 208 199 194 194 197 202 207 210 214 219 230 242
183 185 205 193 213 252 230 156 194 228 272 290 277 265 261 260 269 278 282 282 283 281 274 259 243 242 222 188 189 202 211 210 191 184 190 195 197 200 204 206 212 215 222 238
205 202 205 204 224 250 191 208 236 273 283 280 280 282 283 282 282 283 282 283 283 278 274 258 242 245 225 199 198 210 214 190 179 184 193 195 195 198 199 201 208 213 217 230
236 221 232 252 257 260 261 259 267 265 266 275 280 282 283 280 283 286 287 286 284 281 275 263 245 242 237 215 211 217 200 178 182 189 193 192 194 198 200 203 206 211 216 224
225 217 245 264 271 281 263 256 264 276 281 286 289 288 285 283 285 285 287 287 284 282 277 260 243 244 243 224 217 212 189 178 186 191 193 192 195 197 200 205 208 211 215 215
224 237 254 268 273 272 281 281 285 288 291 295 299 302 300 292 287 289 290 287 287 287 283 272 256 250 248 228 219 207 191 185 186 191 194 194 194 195 197 201 213 226 225 236
Height
1565 1569 1572 1570 1569 1568 1567 1569 1569 1565 1561 1566 1564 1556 1547 1547 1548 1546 1546 1546 1546 1545 1548 1551 1552 1553 1554 1555 1555 1556 1558 1559 1559 1559 1558 1556 1554 1552 1550 1547 1545 1542 1539 1536
1569 1570 1564 1563 1564 1565 1565 1567 1567 1562 1561 1563 1561 1553 1541 1538 1538 1537 1538 1538 1538 1540 1543 1544 1546 1547 1547 1547 1549 1550 1551 1553 1553 1553 1553 1551 1550 1548 1546 1543 1541 1538 1535 1532
1567 1564 1561 1562 1563 1564 1564 1565 1564 1563 1561 1560 1562 1552 1537 1532 1532 1532 1532 1532 1533 1534 1535 1536 1538 1539 1540 1540 1541 1543 1545 1546 1547 1548 1547 1546 1544 1543 1541 1539 1536 1534 1531 1528
1563 1561 1561 1562 1563 1562 1566 1561 1561 1562 1566 1570 1563 1567 1539 1531 1530 1527 1525 1525 1525 1526 1528 1529 1530 1531 1531 1532 1535 1537 1539 1540 1541 1542 1541 1540 1539 1538 1536 1534 1532 1529 1527 1524
1563 1561 1561 1562 1560 1559 1560 1560 1561 1562 1566 1570 1566 1567 1543 1532 1529 1521 1517 1516 1517 1519 1521 1522 1522 1523 1525 1527 1528 1530 1532 1533 1534 1535 1535 1534 1533 1532 1531 1529 1527 1525 1522 1519
1560 1558 1558 1558 1558 1558 1559 1562 1564 1569 1573 1575 1561 1566 1549 1532 1520 1512 1509 1509 1510 1512 1514 1515 1517 1518 1519 1520 1522 1523 1525 1526 1527 1528 1528 1528 1527 1527 1525 1523 1522 1520 1517 1515
1563 1559 1557 1557 1559 1559 1561 1570 1576 1571 1577 1569 1553 1555 1537 1513 1508 1505 1503 1503 1505 1507 1509 1510 1510 1511 1511 1512 1513 1515 1517 1518 1520 1521 1522 1522 1521 1520 1519 1518 1516 1514 1512 1509
1570 1567 1557 1556 1557 1560 1561 1567 1576 1577 1576 1567 1550 1548 1521 1505 1502 1500 1501 1501 1502 1503 1503 1504 1504 1504 1505 1505 1506 1508 1509 1511 1513 1514 1515 1515 1515 1514 1513 1512 1510 1508 1506 1503
1568 1565 1555 1554 1554 1556 1558 1563 1564 1572 1571 1571 1557 1539 1516 1502 1500 1498 1498 1498 1498 1498 1498 1498 1498 1498 1498 1499 1499 1501 1503 1504 1506 1507 1508 1508 1508 1508 1507 1506 1504 1502 1500 1498
1562 1566 1557 1555 1555 1555 1556 1559 1568 1571 1573 1572 1558 1543 1524 1502 1499 1497 1496 1494 1492 1493 1493 1493 1492 1492 1492 1493 1494 1495 1496 1498 1499 1501 1501 1501 1502 1501 1501 1500 1498 1496 1494 1492
1560 1565 1560 1557 1557 1555 1558 1559 1560 1567 1571 1573 1566 1535 1505 1498 1492 1491 1489 1488 1487 1488 1487 1487 1486 1486 1486 1487 1487 1488 1489 1490 1492 1493 1494 1494 1495 1495 1494 1493 1492 1490 1488 1486
1559 1566 1566 1557 1550 1549 1551 1552 1557 1564 1562 1565 1566 1531 1492 1492 1487 1486 1484 1484 1483 1483 1482 1481 1481 1480 1479 1479 1479 1480 1481 1482 1484 1486 1487 1487 1488 1488 1488 1487 1486 1484 1482 1480
1558 1565 1566 1555 1554 1550 1549 1548 1549 1552 1556 1561 1560 1523 1489 1487 1484 1483 1482 1480 1479 1478 1477 1475 1474 1473 1472 1471 1472 1472 1473 1475 1477 1478 1479 1480 1481 1481 1481 1480 1480 1478 1476 1474
1556 1561 1563 1557 1549 1545 1545 1544 1544 1548 1552 1550 1535 1509 1487 1484 1483 1481 1479 1476 1474 1472 1470 1469 1467 1465 1464 1464 1464 1464 1465 1467 1469 1470 1471 1472 1473 1474 1474 1474 1473 1472 1470 1468
1555 1559 1557 1550 1544 1544 1541 1536 1535 1536 1530 1529 1510 1503 1482 1475 1478 1476 1474 1471 1468 1466 1464 1462 1460 1458 1457 1456 1455 1455 1457 1459 1461 1462 1463 1464 1466 1467 1467 1467 1467 1465 1464 1462
1554 1556 1553 1548 1539 1540 1537 1524 1521 1520 1517 1511 1503 1492 1471 1473 1474 1471 1468 1465 1462 1460 1457 1455 1453 1451 1449 1447 1447 1447 1448 1450 1452 1453 1454 1457 1459 1459 1460 1460 1460 1459 1458 1456
1552 1555 1554 1551 1542 1537 1531 1509 1507 1508 1503 1501 1497 1482 1470 1472 1469 1467 1463 1460 1457 1454 1451 1448 1446 1443 1441 1439 1439 1438 1439 1441 1443 1444 1446 1449 1450 1451 1453 1453 1453 1452 1451 1450
1546 1551 1554 1554 1544 1540 1508 1495 1495 1497 1491 1488 1482 1473 1469 1466 1463 1461 1458 1456 1452 1449 1446 1443 1439 1436 1434 1432 1431 1431 1432 1433 1434 1436 1438 1440 1442 1444 1446 1446 1446 1446 1445 1443
1539 1543 1549 1553 1548 1530 1507 1492 1491 1494 1487 1474 1473 1468 1463 1461 1462 1456 1452 1450 1447 1444 1441 1437 1434 1430 1427 1425 1423 1423 1423 1423 1425 1426 1429 1432 1434 1436 1438 1439 1439 1439 1438 1437
1539 1540 1546 1550 1546 1531 1499 1487 1485 1489 1486 1465 1465 1463 1460 1462 1465 1453 1448 1445 1442 1438 1435 1431 1427 1423 1420 1417 1416 1414 1413 1414 1414 1417 1420 1424 1426 1429 1430 1432 1433 1433 1432 1430
1541 1543 1544 1542 1539 1515 1490 1485 1487 1492 1479 1462 1460 1458 1457 1457 1454 1446 1443 1439 1436 1432 1427 1423 1418 1414 1411 1409 1407 1405 1405 1404 1407 1411 1414 1417 1419 1421 1423 1425 1426 1426 1425 1424
1526 1534 1535 1533 1534 1511 1478 1483 1483 1472 1462 1460 1458 1456 1454 1449 1445 1441 1436 1431 1427 1423 1419 1414 1409 1405 1402 1400 1398 1396 1395 1397 1401 1403 1406 1409 1412 1414 1416 1418 1419 1419 1419 1418
1513 1507 1505 1503 1490 1476 1473 1470 1466 1464 1461 1457 1454 1451 1449 1443 1438 1433 1428 1423 1418 1414 1410 1405 1400 1396 1393 1390 1388 1386 1386 1390 1391 1394 1397 1400 1404 1406 1409 1410 1412 1412 1412 1412
1498 1495 1495 1489 1476 1471 1467 1465 1463 1461 1457 1452 1449 1446 1442 1436 1430 1424 1419 1414 1409 1405 1401 1396 1391 1386 1382 1380 1378 1377 1379 1380 1382 1385 1388 1392 1395 1398 1401 1403 1404 1405 1406 1405
1489 1489 1487 1476 1468 1465 1459 1459 1457 1454 1451 1447 1443 1439 1434 1429 1422 1417 1411 1405 1401 1396 1392 1387 1382 1377 1373 1370 1368 1368 1369 1371 1373 1376 1380 1383 1386 1390 1393 1395 1397 1398 1399 1399
1479 1480 1478 1464 1460 1460 1453 1454 1453 1448 1443 1439 1434 1428 1425 1421 1415 1409 1403 1398 1393 1388 1383 1378 1373 1368 1364 1361 1359 1359 1360 1361 1363 1366 1370 1374 1377 1381 1384 1387 1389 1391 1392 1393